<?xml version="1.0" encoding="UTF-8"?>
<gpx version="1.1" creator="https://www.youtrack.es" xsi:schemaLocation="http://www.topografix.com/GPX/1/1 http://www.topografix.com/GPX/1/1/gpx.xsd http://www.garmin.com/xmlschemas/GpxExtensions/v3 http://www.garmin.com/xmlschemas/GpxExtensionsv3.xsd http://www.garmin.com/xmlschemas/TrackPointExtension/v1 http://www.garmin.com/xmlschemas/TrackPointExtensionv1.xsd" xmlns:gpxtpx="http://www.garmin.com/xmlschemas/TrackPointExtension/v1" xmlns:gpxx="http://www.garmin.com/xmlschemas/GpxExtensions/v3" xmlns:xsi="http://www.w3.org/2001/XMLSchema-instance">
  <metadata>
    <author>
      <name>Turisme conca</name>
      <email id="turisme" domain="concadebarbera.cat"/>
    </author>
    <link href="https://www.youtrack.es">
      <text>YouTrack.es</text>
    </link>
    <time>2026-05-08T00:11:46Z</time>
  </metadata>
  <trk>
    <src>https://www.youtrack.es</src>
    <link href="https://www.youtrack.es/ruta/21749-santes-creus-poblet-run-walk">
      <text>YouTrack.es</text>
    </link>
    <trkseg>
      <trkpt lat="41.346439" lon="1.363422">
        <ele>315.157</ele>
        <time>2018-07-30T10:00:00Z</time>
      </trkpt>
      <trkpt lat="41.346378" lon="1.362294">
        <ele>308.587</ele>
        <time>2018-07-30T10:00:00Z</time>
      </trkpt>
      <trkpt lat="41.34678" lon="1.362488">
        <ele>307.319</ele>
        <time>2018-07-30T10:00:00Z</time>
      </trkpt>
      <trkpt lat="41.347149" lon="1.362783">
        <ele>306.561</ele>
        <time>2018-07-30T10:00:00Z</time>
      </trkpt>
      <trkpt lat="41.349825" lon="1.36219">
        <ele>296.212</ele>
        <time>2018-07-30T10:00:00Z</time>
      </trkpt>
      <trkpt lat="41.349852" lon="1.361556">
        <ele>296.548</ele>
        <time>2018-07-30T10:00:00Z</time>
      </trkpt>
      <trkpt lat="41.348649" lon="1.360271">
        <ele>303.308</ele>
        <time>2018-07-30T10:00:00Z</time>
      </trkpt>
      <trkpt lat="41.347891" lon="1.359238">
        <ele>308.348</ele>
        <time>2018-07-30T10:00:00Z</time>
      </trkpt>
      <trkpt lat="41.347719" lon="1.359033">
        <ele>310.708</ele>
        <time>2018-07-30T10:00:00Z</time>
      </trkpt>
      <trkpt lat="41.348362" lon="1.359268">
        <ele>314.981</ele>
        <time>2018-07-30T10:00:00Z</time>
      </trkpt>
      <trkpt lat="41.348654" lon="1.359189">
        <ele>318.427</ele>
        <time>2018-07-30T10:00:00Z</time>
      </trkpt>
      <trkpt lat="41.349376" lon="1.359858">
        <ele>327.047</ele>
        <time>2018-07-30T10:00:00Z</time>
      </trkpt>
      <trkpt lat="41.349979" lon="1.35973">
        <ele>332.922</ele>
        <time>2018-07-30T10:00:00Z</time>
      </trkpt>
      <trkpt lat="41.350658" lon="1.359336">
        <ele>341.163</ele>
        <time>2018-07-30T10:00:00Z</time>
      </trkpt>
      <trkpt lat="41.35127" lon="1.358777">
        <ele>347.966</ele>
        <time>2018-07-30T10:00:00Z</time>
      </trkpt>
      <trkpt lat="41.352229" lon="1.358077">
        <ele>359.062</ele>
        <time>2018-07-30T10:00:00Z</time>
      </trkpt>
      <trkpt lat="41.353203" lon="1.357455">
        <ele>368.535</ele>
        <time>2018-07-30T10:00:00Z</time>
      </trkpt>
      <trkpt lat="41.353751" lon="1.357365">
        <ele>372.587</ele>
        <time>2018-07-30T10:00:00Z</time>
      </trkpt>
      <trkpt lat="41.353927" lon="1.357115">
        <ele>375.11</ele>
        <time>2018-07-30T10:00:00Z</time>
      </trkpt>
      <trkpt lat="41.353831" lon="1.356974">
        <ele>376.593</ele>
        <time>2018-07-30T10:00:00Z</time>
      </trkpt>
      <trkpt lat="41.353514" lon="1.357168">
        <ele>377.796</ele>
        <time>2018-07-30T10:00:00Z</time>
      </trkpt>
      <trkpt lat="41.353353" lon="1.357273">
        <ele>376.047</ele>
        <time>2018-07-30T10:00:00Z</time>
      </trkpt>
      <trkpt lat="41.352881" lon="1.357344">
        <ele>376.008</ele>
        <time>2018-07-30T10:00:00Z</time>
      </trkpt>
      <trkpt lat="41.352402" lon="1.357511">
        <ele>377.561</ele>
        <time>2018-07-30T10:00:00Z</time>
      </trkpt>
      <trkpt lat="41.352545" lon="1.355919">
        <ele>376.908</ele>
        <time>2018-07-30T10:00:00Z</time>
      </trkpt>
      <trkpt lat="41.352915" lon="1.354373">
        <ele>373.9</ele>
        <time>2018-07-30T10:00:00Z</time>
      </trkpt>
      <trkpt lat="41.352061" lon="1.353815">
        <ele>372.575</ele>
        <time>2018-07-30T10:00:00Z</time>
      </trkpt>
      <trkpt lat="41.352179" lon="1.35172">
        <ele>373.02</ele>
        <time>2018-07-30T10:00:00Z</time>
      </trkpt>
      <trkpt lat="41.352835" lon="1.35162">
        <ele>372.894</ele>
        <time>2018-07-30T10:00:00Z</time>
      </trkpt>
      <trkpt lat="41.353072" lon="1.350867">
        <ele>373.524</ele>
        <time>2018-07-30T10:00:00Z</time>
      </trkpt>
      <trkpt lat="41.3533" lon="1.350072">
        <ele>373.811</ele>
        <time>2018-07-30T10:00:00Z</time>
      </trkpt>
      <trkpt lat="41.353481" lon="1.34984">
        <ele>374.027</ele>
        <time>2018-07-30T10:00:00Z</time>
      </trkpt>
      <trkpt lat="41.354114" lon="1.347176">
        <ele>372.717</ele>
        <time>2018-07-30T10:00:00Z</time>
      </trkpt>
      <trkpt lat="41.354366" lon="1.346261">
        <ele>366.716</ele>
        <time>2018-07-30T10:00:00Z</time>
      </trkpt>
      <trkpt lat="41.35539" lon="1.343418">
        <ele>370.308</ele>
        <time>2018-07-30T10:00:00Z</time>
      </trkpt>
      <trkpt lat="41.35553" lon="1.343175">
        <ele>370.579</ele>
        <time>2018-07-30T10:00:00Z</time>
      </trkpt>
      <trkpt lat="41.35634" lon="1.343394">
        <ele>372.868</ele>
        <time>2018-07-30T10:00:00Z</time>
      </trkpt>
      <trkpt lat="41.35647" lon="1.343147">
        <ele>373.104</ele>
        <time>2018-07-30T10:00:00Z</time>
      </trkpt>
      <trkpt lat="41.357231" lon="1.343383">
        <ele>373.917</ele>
        <time>2018-07-30T10:00:00Z</time>
      </trkpt>
      <trkpt lat="41.357386" lon="1.342853">
        <ele>373.849</ele>
        <time>2018-07-30T10:00:00Z</time>
      </trkpt>
      <trkpt lat="41.358018" lon="1.341761">
        <ele>371.946</ele>
        <time>2018-07-30T10:00:00Z</time>
      </trkpt>
      <trkpt lat="41.357757" lon="1.34114">
        <ele>370.869</ele>
        <time>2018-07-30T10:00:00Z</time>
      </trkpt>
      <trkpt lat="41.356323" lon="1.340035">
        <ele>369.229</ele>
        <time>2018-07-30T10:00:00Z</time>
      </trkpt>
      <trkpt lat="41.356863" lon="1.338778">
        <ele>363.152</ele>
        <time>2018-07-30T10:00:00Z</time>
      </trkpt>
      <trkpt lat="41.356693" lon="1.337921">
        <ele>362.545</ele>
        <time>2018-07-30T10:00:00Z</time>
      </trkpt>
      <trkpt lat="41.35683" lon="1.337726">
        <ele>362.905</ele>
        <time>2018-07-30T10:00:00Z</time>
      </trkpt>
      <trkpt lat="41.356771" lon="1.336466">
        <ele>363.377</ele>
        <time>2018-07-30T10:00:00Z</time>
      </trkpt>
      <trkpt lat="41.357509" lon="1.336113">
        <ele>365.115</ele>
        <time>2018-07-30T10:00:00Z</time>
      </trkpt>
      <trkpt lat="41.357526" lon="1.335688">
        <ele>364.989</ele>
        <time>2018-07-30T10:00:00Z</time>
      </trkpt>
      <trkpt lat="41.357657" lon="1.335524">
        <ele>364.948</ele>
        <time>2018-07-30T10:00:00Z</time>
      </trkpt>
      <trkpt lat="41.357525" lon="1.334439">
        <ele>364.917</ele>
        <time>2018-07-30T10:00:00Z</time>
      </trkpt>
      <trkpt lat="41.357535" lon="1.334181">
        <ele>365.115</ele>
        <time>2018-07-30T10:00:00Z</time>
      </trkpt>
      <trkpt lat="41.35745" lon="1.333562">
        <ele>364.419</ele>
        <time>2018-07-30T10:00:00Z</time>
      </trkpt>
      <trkpt lat="41.357478" lon="1.333035">
        <ele>364.856</ele>
        <time>2018-07-30T10:00:00Z</time>
      </trkpt>
      <trkpt lat="41.357318" lon="1.331945">
        <ele>364.024</ele>
        <time>2018-07-30T10:00:00Z</time>
      </trkpt>
      <trkpt lat="41.357161" lon="1.329875">
        <ele>363.059</ele>
        <time>2018-07-30T10:00:00Z</time>
      </trkpt>
      <trkpt lat="41.356778" lon="1.328642">
        <ele>359.78</ele>
        <time>2018-07-30T10:00:00Z</time>
      </trkpt>
      <trkpt lat="41.356651" lon="1.327958">
        <ele>359.766</ele>
        <time>2018-07-30T10:00:00Z</time>
      </trkpt>
      <trkpt lat="41.357065" lon="1.326656">
        <ele>357.031</ele>
        <time>2018-07-30T10:00:00Z</time>
      </trkpt>
      <trkpt lat="41.357028" lon="1.32631">
        <ele>358.008</ele>
        <time>2018-07-30T10:00:00Z</time>
      </trkpt>
      <trkpt lat="41.357262" lon="1.325677">
        <ele>357.996</ele>
        <time>2018-07-30T10:00:00Z</time>
      </trkpt>
      <trkpt lat="41.357633" lon="1.325141">
        <ele>357.857</ele>
        <time>2018-07-30T10:00:00Z</time>
      </trkpt>
      <trkpt lat="41.35734" lon="1.323905">
        <ele>356.031</ele>
        <time>2018-07-30T10:00:00Z</time>
      </trkpt>
      <trkpt lat="41.357665" lon="1.323042">
        <ele>356.166</ele>
        <time>2018-07-30T10:00:00Z</time>
      </trkpt>
      <trkpt lat="41.357571" lon="1.32274">
        <ele>353.461</ele>
        <time>2018-07-30T10:00:00Z</time>
      </trkpt>
      <trkpt lat="41.357178" lon="1.322642">
        <ele>350.348</ele>
        <time>2018-07-30T10:00:00Z</time>
      </trkpt>
      <trkpt lat="41.357318" lon="1.322364">
        <ele>352.211</ele>
        <time>2018-07-30T10:00:00Z</time>
      </trkpt>
      <trkpt lat="41.356366" lon="1.319161">
        <ele>355.023</ele>
        <time>2018-07-30T10:00:00Z</time>
      </trkpt>
      <trkpt lat="41.356361" lon="1.318826">
        <ele>354.907</ele>
        <time>2018-07-30T10:00:00Z</time>
      </trkpt>
      <trkpt lat="41.355616" lon="1.31655">
        <ele>354.184</ele>
        <time>2018-07-30T10:00:00Z</time>
      </trkpt>
      <trkpt lat="41.356655" lon="1.315525">
        <ele>356.708</ele>
        <time>2018-07-30T10:00:00Z</time>
      </trkpt>
      <trkpt lat="41.357203" lon="1.315128">
        <ele>358.763</ele>
        <time>2018-07-30T10:00:00Z</time>
      </trkpt>
      <trkpt lat="41.357196" lon="1.314345">
        <ele>358.888</ele>
        <time>2018-07-30T10:00:00Z</time>
      </trkpt>
      <trkpt lat="41.357437" lon="1.313287">
        <ele>360.761</ele>
        <time>2018-07-30T10:00:00Z</time>
      </trkpt>
      <trkpt lat="41.358655" lon="1.311365">
        <ele>370.39</ele>
        <time>2018-07-30T10:00:00Z</time>
      </trkpt>
      <trkpt lat="41.358622" lon="1.310965">
        <ele>371.049</ele>
        <time>2018-07-30T10:00:00Z</time>
      </trkpt>
      <trkpt lat="41.358208" lon="1.309451">
        <ele>368.774</ele>
        <time>2018-07-30T10:00:00Z</time>
      </trkpt>
      <trkpt lat="41.358467" lon="1.307048">
        <ele>365.929</ele>
        <time>2018-07-30T10:00:00Z</time>
      </trkpt>
      <trkpt lat="41.358575" lon="1.305521">
        <ele>365.966</ele>
        <time>2018-07-30T10:00:00Z</time>
      </trkpt>
      <trkpt lat="41.358635" lon="1.304097">
        <ele>367.916</ele>
        <time>2018-07-30T10:00:00Z</time>
      </trkpt>
      <trkpt lat="41.359447" lon="1.302043">
        <ele>369.885</ele>
        <time>2018-07-30T10:00:00Z</time>
      </trkpt>
      <trkpt lat="41.360515" lon="1.299671">
        <ele>373.438</ele>
        <time>2018-07-30T10:00:00Z</time>
      </trkpt>
      <trkpt lat="41.361285" lon="1.298458">
        <ele>376.87</ele>
        <time>2018-07-30T10:00:00Z</time>
      </trkpt>
      <trkpt lat="41.361806" lon="1.298077">
        <ele>377.642</ele>
        <time>2018-07-30T10:00:00Z</time>
      </trkpt>
      <trkpt lat="41.361577" lon="1.296236">
        <ele>376.911</ele>
        <time>2018-07-30T10:00:00Z</time>
      </trkpt>
      <trkpt lat="41.361784" lon="1.295058">
        <ele>377.852</ele>
        <time>2018-07-30T10:00:00Z</time>
      </trkpt>
      <trkpt lat="41.36248" lon="1.292856">
        <ele>380.137</ele>
        <time>2018-07-30T10:00:00Z</time>
      </trkpt>
      <trkpt lat="41.362612" lon="1.291429">
        <ele>379.03</ele>
        <time>2018-07-30T10:00:00Z</time>
      </trkpt>
      <trkpt lat="41.362949" lon="1.290437">
        <ele>378.43</ele>
        <time>2018-07-30T10:00:00Z</time>
      </trkpt>
      <trkpt lat="41.362963" lon="1.290168">
        <ele>378.039</ele>
        <time>2018-07-30T10:00:00Z</time>
      </trkpt>
      <trkpt lat="41.363913" lon="1.289298">
        <ele>381.138</ele>
        <time>2018-07-30T10:00:00Z</time>
      </trkpt>
      <trkpt lat="41.365189" lon="1.288464">
        <ele>387.017</ele>
        <time>2018-07-30T10:00:00Z</time>
      </trkpt>
      <trkpt lat="41.364828" lon="1.287529">
        <ele>386.098</ele>
        <time>2018-07-30T10:00:00Z</time>
      </trkpt>
      <trkpt lat="41.365326" lon="1.2862">
        <ele>388.838</ele>
        <time>2018-07-30T10:00:00Z</time>
      </trkpt>
      <trkpt lat="41.364079" lon="1.283507">
        <ele>389.17</ele>
        <time>2018-07-30T10:00:00Z</time>
      </trkpt>
      <trkpt lat="41.364161" lon="1.282978">
        <ele>391.87</ele>
        <time>2018-07-30T10:00:00Z</time>
      </trkpt>
      <trkpt lat="41.363411" lon="1.281898">
        <ele>394.561</ele>
        <time>2018-07-30T10:00:00Z</time>
      </trkpt>
      <trkpt lat="41.36453" lon="1.280213">
        <ele>402.013</ele>
        <time>2018-07-30T10:00:00Z</time>
      </trkpt>
      <trkpt lat="41.363539" lon="1.278702">
        <ele>401.431</ele>
        <time>2018-07-30T10:00:00Z</time>
      </trkpt>
      <trkpt lat="41.363178" lon="1.278054">
        <ele>401.417</ele>
        <time>2018-07-30T10:00:00Z</time>
      </trkpt>
      <trkpt lat="41.362688" lon="1.277487">
        <ele>402.781</ele>
        <time>2018-07-30T10:00:00Z</time>
      </trkpt>
      <trkpt lat="41.363157" lon="1.276339">
        <ele>406.331</ele>
        <time>2018-07-30T10:00:00Z</time>
      </trkpt>
      <trkpt lat="41.364666" lon="1.273961">
        <ele>419.543</ele>
        <time>2018-07-30T10:00:00Z</time>
      </trkpt>
      <trkpt lat="41.364834" lon="1.273777">
        <ele>420.817</ele>
        <time>2018-07-30T10:00:00Z</time>
      </trkpt>
      <trkpt lat="41.366001" lon="1.273525">
        <ele>425.461</ele>
        <time>2018-07-30T10:00:00Z</time>
      </trkpt>
      <trkpt lat="41.367325" lon="1.272588">
        <ele>432.822</ele>
        <time>2018-07-30T10:00:00Z</time>
      </trkpt>
      <trkpt lat="41.367976" lon="1.272451">
        <ele>436.249</ele>
        <time>2018-07-30T10:00:00Z</time>
      </trkpt>
      <trkpt lat="41.369581" lon="1.271081">
        <ele>448.257</ele>
        <time>2018-07-30T10:00:00Z</time>
      </trkpt>
      <trkpt lat="41.370286" lon="1.270463">
        <ele>453.333</ele>
        <time>2018-07-30T10:00:00Z</time>
      </trkpt>
      <trkpt lat="41.37076" lon="1.269064">
        <ele>461.554</ele>
        <time>2018-07-30T10:00:00Z</time>
      </trkpt>
      <trkpt lat="41.371252" lon="1.268214">
        <ele>465.412</ele>
        <time>2018-07-30T10:00:00Z</time>
      </trkpt>
      <trkpt lat="41.371664" lon="1.267163">
        <ele>469.092</ele>
        <time>2018-07-30T10:00:00Z</time>
      </trkpt>
      <trkpt lat="41.37152" lon="1.266593">
        <ele>471.424</ele>
        <time>2018-07-30T10:00:00Z</time>
      </trkpt>
      <trkpt lat="41.3716" lon="1.265904">
        <ele>478.556</ele>
        <time>2018-07-30T10:00:00Z</time>
      </trkpt>
      <trkpt lat="41.372206" lon="1.265787">
        <ele>481.626</ele>
        <time>2018-07-30T10:00:00Z</time>
      </trkpt>
      <trkpt lat="41.372651" lon="1.265117">
        <ele>488.946</ele>
        <time>2018-07-30T10:00:00Z</time>
      </trkpt>
      <trkpt lat="41.374066" lon="1.264888">
        <ele>494.937</ele>
        <time>2018-07-30T10:00:00Z</time>
      </trkpt>
      <trkpt lat="41.374421" lon="1.264526">
        <ele>493.192</ele>
        <time>2018-07-30T10:00:00Z</time>
      </trkpt>
      <trkpt lat="41.374824" lon="1.263648">
        <ele>501.263</ele>
        <time>2018-07-30T10:00:00Z</time>
      </trkpt>
      <trkpt lat="41.375015" lon="1.263176">
        <ele>502.178</ele>
        <time>2018-07-30T10:00:00Z</time>
      </trkpt>
      <trkpt lat="41.375168" lon="1.262719">
        <ele>504.176</ele>
        <time>2018-07-30T10:00:00Z</time>
      </trkpt>
      <trkpt lat="41.375556" lon="1.262458">
        <ele>508.573</ele>
        <time>2018-07-30T10:00:00Z</time>
      </trkpt>
      <trkpt lat="41.375888" lon="1.262264">
        <ele>511.574</ele>
        <time>2018-07-30T10:00:00Z</time>
      </trkpt>
      <trkpt lat="41.376612" lon="1.26155">
        <ele>526.765</ele>
        <time>2018-07-30T10:00:00Z</time>
      </trkpt>
      <trkpt lat="41.377164" lon="1.261165">
        <ele>535.216</ele>
        <time>2018-07-30T10:00:00Z</time>
      </trkpt>
      <trkpt lat="41.377667" lon="1.260476">
        <ele>543.066</ele>
        <time>2018-07-30T10:00:00Z</time>
      </trkpt>
      <trkpt lat="41.378124" lon="1.26029">
        <ele>546.687</ele>
        <time>2018-07-30T10:00:00Z</time>
      </trkpt>
      <trkpt lat="41.379284" lon="1.258998">
        <ele>565.375</ele>
        <time>2018-07-30T10:00:00Z</time>
      </trkpt>
      <trkpt lat="41.379467" lon="1.258568">
        <ele>572.215</ele>
        <time>2018-07-30T10:00:00Z</time>
      </trkpt>
      <trkpt lat="41.380226" lon="1.257556">
        <ele>587.831</ele>
        <time>2018-07-30T10:00:00Z</time>
      </trkpt>
      <trkpt lat="41.38058" lon="1.257116">
        <ele>597.014</ele>
        <time>2018-07-30T10:00:00Z</time>
      </trkpt>
      <trkpt lat="41.380744" lon="1.257279">
        <ele>598.253</ele>
        <time>2018-07-30T10:00:00Z</time>
      </trkpt>
      <trkpt lat="41.380792" lon="1.258019">
        <ele>606.921</ele>
        <time>2018-07-30T10:00:00Z</time>
      </trkpt>
      <trkpt lat="41.381267" lon="1.258197">
        <ele>615.448</ele>
        <time>2018-07-30T10:00:00Z</time>
      </trkpt>
      <trkpt lat="41.381399" lon="1.258571">
        <ele>620.423</ele>
        <time>2018-07-30T10:00:00Z</time>
      </trkpt>
      <trkpt lat="41.38157" lon="1.259479">
        <ele>624.99</ele>
        <time>2018-07-30T10:00:00Z</time>
      </trkpt>
      <trkpt lat="41.381731" lon="1.259895">
        <ele>633.265</ele>
        <time>2018-07-30T10:00:00Z</time>
      </trkpt>
      <trkpt lat="41.38184" lon="1.260275">
        <ele>638.429</ele>
        <time>2018-07-30T10:00:00Z</time>
      </trkpt>
      <trkpt lat="41.381925" lon="1.25995">
        <ele>642.061</ele>
        <time>2018-07-30T10:00:00Z</time>
      </trkpt>
      <trkpt lat="41.382092" lon="1.261189">
        <ele>658.892</ele>
        <time>2018-07-30T10:00:00Z</time>
      </trkpt>
      <trkpt lat="41.382251" lon="1.260964">
        <ele>663.378</ele>
        <time>2018-07-30T10:00:00Z</time>
      </trkpt>
      <trkpt lat="41.382304" lon="1.26089">
        <ele>665.908</ele>
        <time>2018-07-30T10:00:00Z</time>
      </trkpt>
      <trkpt lat="41.382366" lon="1.261086">
        <ele>671.777</ele>
        <time>2018-07-30T10:00:00Z</time>
      </trkpt>
      <trkpt lat="41.382361" lon="1.260452">
        <ele>674.138</ele>
        <time>2018-07-30T10:00:00Z</time>
      </trkpt>
      <trkpt lat="41.382343" lon="1.260208">
        <ele>677.827</ele>
        <time>2018-07-30T10:00:00Z</time>
      </trkpt>
      <trkpt lat="41.382666" lon="1.25981">
        <ele>687.526</ele>
        <time>2018-07-30T10:00:00Z</time>
      </trkpt>
      <trkpt lat="41.382675" lon="1.259198">
        <ele>696.819</ele>
        <time>2018-07-30T10:00:00Z</time>
      </trkpt>
      <trkpt lat="41.38271" lon="1.25853">
        <ele>697.116</ele>
        <time>2018-07-30T10:00:00Z</time>
      </trkpt>
      <trkpt lat="41.382631" lon="1.257862">
        <ele>695.259</ele>
        <time>2018-07-30T10:00:00Z</time>
      </trkpt>
      <trkpt lat="41.382478" lon="1.257256">
        <ele>700.908</ele>
        <time>2018-07-30T10:00:00Z</time>
      </trkpt>
      <trkpt lat="41.382427" lon="1.254522">
        <ele>721.008</ele>
        <time>2018-07-30T10:00:00Z</time>
      </trkpt>
      <trkpt lat="41.382081" lon="1.253676">
        <ele>732.247</ele>
        <time>2018-07-30T10:00:00Z</time>
      </trkpt>
      <trkpt lat="41.382081" lon="1.252775">
        <ele>740.025</ele>
        <time>2018-07-30T10:00:00Z</time>
      </trkpt>
      <trkpt lat="41.381645" lon="1.251367">
        <ele>738.37</ele>
        <time>2018-07-30T10:00:00Z</time>
      </trkpt>
      <trkpt lat="41.381182" lon="1.250489">
        <ele>734.933</ele>
        <time>2018-07-30T10:00:00Z</time>
      </trkpt>
      <trkpt lat="41.380537" lon="1.248338">
        <ele>721.208</ele>
        <time>2018-07-30T10:00:00Z</time>
      </trkpt>
      <trkpt lat="41.380247" lon="1.247649">
        <ele>723.952</ele>
        <time>2018-07-30T10:00:00Z</time>
      </trkpt>
      <trkpt lat="41.38011" lon="1.246971">
        <ele>718.634</ele>
        <time>2018-07-30T10:00:00Z</time>
      </trkpt>
      <trkpt lat="41.37993" lon="1.246376">
        <ele>721.645</ele>
        <time>2018-07-30T10:00:00Z</time>
      </trkpt>
      <trkpt lat="41.379795" lon="1.245172">
        <ele>728.357</ele>
        <time>2018-07-30T10:00:00Z</time>
      </trkpt>
      <trkpt lat="41.379234" lon="1.244448">
        <ele>742.853</ele>
        <time>2018-07-30T10:00:00Z</time>
      </trkpt>
      <trkpt lat="41.379519" lon="1.243938">
        <ele>736.156</ele>
        <time>2018-07-30T10:00:00Z</time>
      </trkpt>
      <trkpt lat="41.379681" lon="1.242761">
        <ele>728.537</ele>
        <time>2018-07-30T10:00:00Z</time>
      </trkpt>
      <trkpt lat="41.379597" lon="1.241631">
        <ele>738.684</ele>
        <time>2018-07-30T10:00:00Z</time>
      </trkpt>
      <trkpt lat="41.379777" lon="1.241365">
        <ele>741.794</ele>
        <time>2018-07-30T10:00:00Z</time>
      </trkpt>
      <trkpt lat="41.379359" lon="1.24112">
        <ele>749.425</ele>
        <time>2018-07-30T10:00:00Z</time>
      </trkpt>
      <trkpt lat="41.379061" lon="1.241367">
        <ele>754.831</ele>
        <time>2018-07-30T10:00:00Z</time>
      </trkpt>
      <trkpt lat="41.379044" lon="1.240805">
        <ele>759.063</ele>
        <time>2018-07-30T10:00:00Z</time>
      </trkpt>
      <trkpt lat="41.379316" lon="1.24063">
        <ele>760.121</ele>
        <time>2018-07-30T10:00:00Z</time>
      </trkpt>
      <trkpt lat="41.379473" lon="1.240584">
        <ele>761.911</ele>
        <time>2018-07-30T10:00:00Z</time>
      </trkpt>
      <trkpt lat="41.378898" lon="1.240131">
        <ele>770.561</ele>
        <time>2018-07-30T10:00:00Z</time>
      </trkpt>
      <trkpt lat="41.378416" lon="1.239543">
        <ele>775.966</ele>
        <time>2018-07-30T10:00:00Z</time>
      </trkpt>
      <trkpt lat="41.377758" lon="1.238317">
        <ele>755.007</ele>
        <time>2018-07-30T10:00:00Z</time>
      </trkpt>
      <trkpt lat="41.377924" lon="1.237648">
        <ele>741.957</ele>
        <time>2018-07-30T10:00:00Z</time>
      </trkpt>
      <trkpt lat="41.377825" lon="1.237374">
        <ele>736.139</ele>
        <time>2018-07-30T10:00:00Z</time>
      </trkpt>
      <trkpt lat="41.377524" lon="1.237468">
        <ele>733.176</ele>
        <time>2018-07-30T10:00:00Z</time>
      </trkpt>
      <trkpt lat="41.377531" lon="1.23733">
        <ele>729.655</ele>
        <time>2018-07-30T10:00:00Z</time>
      </trkpt>
      <trkpt lat="41.377631" lon="1.237094">
        <ele>725.49</ele>
        <time>2018-07-30T10:00:00Z</time>
      </trkpt>
      <trkpt lat="41.377464" lon="1.235901">
        <ele>703.226</ele>
        <time>2018-07-30T10:00:00Z</time>
      </trkpt>
      <trkpt lat="41.377248" lon="1.235616">
        <ele>693.131</ele>
        <time>2018-07-30T10:00:00Z</time>
      </trkpt>
      <trkpt lat="41.377082" lon="1.235925">
        <ele>688.688</ele>
        <time>2018-07-30T10:00:00Z</time>
      </trkpt>
      <trkpt lat="41.376927" lon="1.235804">
        <ele>684.625</ele>
        <time>2018-07-30T10:00:00Z</time>
      </trkpt>
      <trkpt lat="41.376736" lon="1.235378">
        <ele>676.533</ele>
        <time>2018-07-30T10:00:00Z</time>
      </trkpt>
      <trkpt lat="41.376745" lon="1.234199">
        <ele>659.813</ele>
        <time>2018-07-30T10:00:00Z</time>
      </trkpt>
      <trkpt lat="41.376047" lon="1.233304">
        <ele>636.376</ele>
        <time>2018-07-30T10:00:00Z</time>
      </trkpt>
      <trkpt lat="41.37538" lon="1.232683">
        <ele>618.792</ele>
        <time>2018-07-30T10:00:00Z</time>
      </trkpt>
      <trkpt lat="41.374965" lon="1.232084">
        <ele>604.171</ele>
        <time>2018-07-30T10:00:00Z</time>
      </trkpt>
      <trkpt lat="41.374764" lon="1.231933">
        <ele>595.76</ele>
        <time>2018-07-30T10:00:00Z</time>
      </trkpt>
      <trkpt lat="41.374681" lon="1.231464">
        <ele>588.508</ele>
        <time>2018-07-30T10:00:00Z</time>
      </trkpt>
      <trkpt lat="41.375218" lon="1.230947">
        <ele>574.646</ele>
        <time>2018-07-30T10:00:00Z</time>
      </trkpt>
      <trkpt lat="41.375621" lon="1.230528">
        <ele>561.878</ele>
        <time>2018-07-30T10:00:00Z</time>
      </trkpt>
      <trkpt lat="41.376148" lon="1.230222">
        <ele>553.181</ele>
        <time>2018-07-30T10:00:00Z</time>
      </trkpt>
      <trkpt lat="41.376384" lon="1.23009">
        <ele>547.567</ele>
        <time>2018-07-30T10:00:00Z</time>
      </trkpt>
      <trkpt lat="41.376659" lon="1.229814">
        <ele>535.788</ele>
        <time>2018-07-30T10:00:00Z</time>
      </trkpt>
      <trkpt lat="41.376911" lon="1.229741">
        <ele>534.677</ele>
        <time>2018-07-30T10:00:00Z</time>
      </trkpt>
      <trkpt lat="41.377118" lon="1.229454">
        <ele>530.517</ele>
        <time>2018-07-30T10:00:00Z</time>
      </trkpt>
      <trkpt lat="41.377203" lon="1.228872">
        <ele>517.707</ele>
        <time>2018-07-30T10:00:00Z</time>
      </trkpt>
      <trkpt lat="41.37727" lon="1.228512">
        <ele>509.616</ele>
        <time>2018-07-30T10:00:00Z</time>
      </trkpt>
      <trkpt lat="41.377373" lon="1.228044">
        <ele>503.396</ele>
        <time>2018-07-30T10:00:00Z</time>
      </trkpt>
      <trkpt lat="41.377157" lon="1.227905">
        <ele>502.645</ele>
        <time>2018-07-30T10:00:00Z</time>
      </trkpt>
      <trkpt lat="41.377306" lon="1.227339">
        <ele>499.05</ele>
        <time>2018-07-30T10:00:00Z</time>
      </trkpt>
      <trkpt lat="41.377282" lon="1.226957">
        <ele>497.411</ele>
        <time>2018-07-30T10:00:00Z</time>
      </trkpt>
      <trkpt lat="41.378443" lon="1.223531">
        <ele>471.597</ele>
        <time>2018-07-30T10:00:00Z</time>
      </trkpt>
      <trkpt lat="41.378655" lon="1.222622">
        <ele>467.079</ele>
        <time>2018-07-30T10:00:00Z</time>
      </trkpt>
      <trkpt lat="41.37901" lon="1.222905">
        <ele>466.708</ele>
        <time>2018-07-30T10:00:00Z</time>
      </trkpt>
      <trkpt lat="41.379426" lon="1.222392">
        <ele>465.377</ele>
        <time>2018-07-30T10:00:00Z</time>
      </trkpt>
      <trkpt lat="41.379622" lon="1.222004">
        <ele>465.256</ele>
        <time>2018-07-30T10:00:00Z</time>
      </trkpt>
      <trkpt lat="41.380654" lon="1.220497">
        <ele>457.217</ele>
        <time>2018-07-30T10:00:00Z</time>
      </trkpt>
      <trkpt lat="41.381091" lon="1.219955">
        <ele>452.929</ele>
        <time>2018-07-30T10:00:00Z</time>
      </trkpt>
      <trkpt lat="41.381529" lon="1.219172">
        <ele>446.815</ele>
        <time>2018-07-30T10:00:00Z</time>
      </trkpt>
      <trkpt lat="41.38148" lon="1.218">
        <ele>441.021</ele>
        <time>2018-07-30T10:00:00Z</time>
      </trkpt>
      <trkpt lat="41.381245" lon="1.217111">
        <ele>437.008</ele>
        <time>2018-07-30T10:00:00Z</time>
      </trkpt>
      <trkpt lat="41.381899" lon="1.216884">
        <ele>439.956</ele>
        <time>2018-07-30T10:00:00Z</time>
      </trkpt>
      <trkpt lat="41.381964" lon="1.216451">
        <ele>441.053</ele>
        <time>2018-07-30T10:00:00Z</time>
      </trkpt>
      <trkpt lat="41.382216" lon="1.215822">
        <ele>441.467</ele>
        <time>2018-07-30T10:00:00Z</time>
      </trkpt>
      <trkpt lat="41.38248" lon="1.215377">
        <ele>439.581</ele>
        <time>2018-07-30T10:00:00Z</time>
      </trkpt>
      <trkpt lat="41.382669" lon="1.21456">
        <ele>434.167</ele>
        <time>2018-07-30T10:00:00Z</time>
      </trkpt>
      <trkpt lat="41.382714" lon="1.214278">
        <ele>433.208</ele>
        <time>2018-07-30T10:00:00Z</time>
      </trkpt>
      <trkpt lat="41.382627" lon="1.213623">
        <ele>428.433</ele>
        <time>2018-07-30T10:00:00Z</time>
      </trkpt>
      <trkpt lat="41.382663" lon="1.212724">
        <ele>425.208</ele>
        <time>2018-07-30T10:00:00Z</time>
      </trkpt>
      <trkpt lat="41.382858" lon="1.212503">
        <ele>421.787</ele>
        <time>2018-07-30T10:00:00Z</time>
      </trkpt>
      <trkpt lat="41.382974" lon="1.211872">
        <ele>418.091</ele>
        <time>2018-07-30T10:00:00Z</time>
      </trkpt>
      <trkpt lat="41.382448" lon="1.211031">
        <ele>414.04</ele>
        <time>2018-07-30T10:00:00Z</time>
      </trkpt>
      <trkpt lat="41.382693" lon="1.209709">
        <ele>410.034</ele>
        <time>2018-07-30T10:00:00Z</time>
      </trkpt>
      <trkpt lat="41.382665" lon="1.209106">
        <ele>409.008</ele>
        <time>2018-07-30T10:00:00Z</time>
      </trkpt>
      <trkpt lat="41.382511" lon="1.208434">
        <ele>408.06</ele>
        <time>2018-07-30T10:00:00Z</time>
      </trkpt>
      <trkpt lat="41.38244" lon="1.207659">
        <ele>405.252</ele>
        <time>2018-07-30T10:00:00Z</time>
      </trkpt>
      <trkpt lat="41.382475" lon="1.206737">
        <ele>398.948</ele>
        <time>2018-07-30T10:00:00Z</time>
      </trkpt>
      <trkpt lat="41.382306" lon="1.204816">
        <ele>390.808</ele>
        <time>2018-07-30T10:00:00Z</time>
      </trkpt>
      <trkpt lat="41.382089" lon="1.203925">
        <ele>388.017</ele>
        <time>2018-07-30T10:00:00Z</time>
      </trkpt>
      <trkpt lat="41.381501" lon="1.203475">
        <ele>388.294</ele>
        <time>2018-07-30T10:00:00Z</time>
      </trkpt>
      <trkpt lat="41.380815" lon="1.203057">
        <ele>388.892</ele>
        <time>2018-07-30T10:00:00Z</time>
      </trkpt>
      <trkpt lat="41.381059" lon="1.201149">
        <ele>384.056</ele>
        <time>2018-07-30T10:00:00Z</time>
      </trkpt>
      <trkpt lat="41.381301" lon="1.20104">
        <ele>381.97</ele>
        <time>2018-07-30T10:00:00Z</time>
      </trkpt>
      <trkpt lat="41.381062" lon="1.200144">
        <ele>383.143</ele>
        <time>2018-07-30T10:00:00Z</time>
      </trkpt>
      <trkpt lat="41.381618" lon="1.199404">
        <ele>379.242</ele>
        <time>2018-07-30T10:00:00Z</time>
      </trkpt>
      <trkpt lat="41.381763" lon="1.198928">
        <ele>375.311</ele>
        <time>2018-07-30T10:00:00Z</time>
      </trkpt>
      <trkpt lat="41.381669" lon="1.197501">
        <ele>374.007</ele>
        <time>2018-07-30T10:00:00Z</time>
      </trkpt>
      <trkpt lat="41.381554" lon="1.196183">
        <ele>373.639</ele>
        <time>2018-07-30T10:00:00Z</time>
      </trkpt>
      <trkpt lat="41.381654" lon="1.195116">
        <ele>373.017</ele>
        <time>2018-07-30T10:00:00Z</time>
      </trkpt>
      <trkpt lat="41.382187" lon="1.194634">
        <ele>370.421</ele>
        <time>2018-07-30T10:00:00Z</time>
      </trkpt>
      <trkpt lat="41.382687" lon="1.194322">
        <ele>370.738</ele>
        <time>2018-07-30T10:00:00Z</time>
      </trkpt>
      <trkpt lat="41.382359" lon="1.191538">
        <ele>367.84</ele>
        <time>2018-07-30T10:00:00Z</time>
      </trkpt>
      <trkpt lat="41.382429" lon="1.190842">
        <ele>363.485</ele>
        <time>2018-07-30T10:00:00Z</time>
      </trkpt>
      <trkpt lat="41.382672" lon="1.190208">
        <ele>360.481</ele>
        <time>2018-07-30T10:00:00Z</time>
      </trkpt>
      <trkpt lat="41.382616" lon="1.189833">
        <ele>359.923</ele>
        <time>2018-07-30T10:00:00Z</time>
      </trkpt>
      <trkpt lat="41.382873" lon="1.188151">
        <ele>357.026</ele>
        <time>2018-07-30T10:00:00Z</time>
      </trkpt>
      <trkpt lat="41.383194" lon="1.187444">
        <ele>356.39</ele>
        <time>2018-07-30T10:00:00Z</time>
      </trkpt>
      <trkpt lat="41.383853" lon="1.186403">
        <ele>350.262</ele>
        <time>2018-07-30T10:00:00Z</time>
      </trkpt>
      <trkpt lat="41.383877" lon="1.185589">
        <ele>345.746</ele>
        <time>2018-07-30T10:00:00Z</time>
      </trkpt>
      <trkpt lat="41.384051" lon="1.18519">
        <ele>344.534</ele>
        <time>2018-07-30T10:00:00Z</time>
      </trkpt>
      <trkpt lat="41.384531" lon="1.185356">
        <ele>340.923</ele>
        <time>2018-07-30T10:00:00Z</time>
      </trkpt>
      <trkpt lat="41.384421" lon="1.182136">
        <ele>333.732</ele>
        <time>2018-07-30T10:00:00Z</time>
      </trkpt>
      <trkpt lat="41.384345" lon="1.180709">
        <ele>333.477</ele>
        <time>2018-07-30T10:00:00Z</time>
      </trkpt>
      <trkpt lat="41.38407" lon="1.180124">
        <ele>333.127</ele>
        <time>2018-07-30T10:00:00Z</time>
      </trkpt>
      <trkpt lat="41.383816" lon="1.178887">
        <ele>328.445</ele>
        <time>2018-07-30T10:00:00Z</time>
      </trkpt>
      <trkpt lat="41.38373" lon="1.178352">
        <ele>326.567</ele>
        <time>2018-07-30T10:00:00Z</time>
      </trkpt>
      <trkpt lat="41.383306" lon="1.177771">
        <ele>324.108</ele>
        <time>2018-07-30T10:00:00Z</time>
      </trkpt>
      <trkpt lat="41.383441" lon="1.177457">
        <ele>322.45</ele>
        <time>2018-07-30T10:00:00Z</time>
      </trkpt>
      <trkpt lat="41.383598" lon="1.177141">
        <ele>321.511</ele>
        <time>2018-07-30T10:00:00Z</time>
      </trkpt>
      <trkpt lat="41.382826" lon="1.175853">
        <ele>320.239</ele>
        <time>2018-07-30T10:00:00Z</time>
      </trkpt>
      <trkpt lat="41.382064" lon="1.175564">
        <ele>319.047</ele>
        <time>2018-07-30T10:00:00Z</time>
      </trkpt>
      <trkpt lat="41.381449" lon="1.175007">
        <ele>318.542</ele>
        <time>2018-07-30T10:00:00Z</time>
      </trkpt>
      <trkpt lat="41.380804" lon="1.17353">
        <ele>317.393</ele>
        <time>2018-07-30T10:00:00Z</time>
      </trkpt>
      <trkpt lat="41.380597" lon="1.172705">
        <ele>312.546</ele>
        <time>2018-07-30T10:00:00Z</time>
      </trkpt>
      <trkpt lat="41.380622" lon="1.172279">
        <ele>313.557</ele>
        <time>2018-07-30T10:00:00Z</time>
      </trkpt>
      <trkpt lat="41.381131" lon="1.172277">
        <ele>316.196</ele>
        <time>2018-07-30T10:00:00Z</time>
      </trkpt>
      <trkpt lat="41.3811" lon="1.172033">
        <ele>316.938</ele>
        <time>2018-07-30T10:00:00Z</time>
      </trkpt>
      <trkpt lat="41.380937" lon="1.172013">
        <ele>317.668</ele>
        <time>2018-07-30T10:00:00Z</time>
      </trkpt>
      <trkpt lat="41.3806" lon="1.172041">
        <ele>320.22</ele>
        <time>2018-07-30T10:00:00Z</time>
      </trkpt>
      <trkpt lat="41.38015" lon="1.172053">
        <ele>319.384</ele>
        <time>2018-07-30T10:00:00Z</time>
      </trkpt>
      <trkpt lat="41.379454" lon="1.170817">
        <ele>325.094</ele>
        <time>2018-07-30T10:00:00Z</time>
      </trkpt>
      <trkpt lat="41.379048" lon="1.170524">
        <ele>326.764</ele>
        <time>2018-07-30T10:00:00Z</time>
      </trkpt>
      <trkpt lat="41.379037" lon="1.170129">
        <ele>327.108</ele>
        <time>2018-07-30T10:00:00Z</time>
      </trkpt>
      <trkpt lat="41.37992" lon="1.169255">
        <ele>328.308</ele>
        <time>2018-07-30T10:00:00Z</time>
      </trkpt>
      <trkpt lat="41.380474" lon="1.167889">
        <ele>330.592</ele>
        <time>2018-07-30T10:00:00Z</time>
      </trkpt>
      <trkpt lat="41.381298" lon="1.166741">
        <ele>331.613</ele>
        <time>2018-07-30T10:00:00Z</time>
      </trkpt>
      <trkpt lat="41.381887" lon="1.16639">
        <ele>333.877</ele>
        <time>2018-07-30T10:00:00Z</time>
      </trkpt>
      <trkpt lat="41.382366" lon="1.164817">
        <ele>333.922</ele>
        <time>2018-07-30T10:00:00Z</time>
      </trkpt>
      <trkpt lat="41.383096" lon="1.16427">
        <ele>334.594</ele>
        <time>2018-07-30T10:00:00Z</time>
      </trkpt>
      <trkpt lat="41.383079" lon="1.164031">
        <ele>333.223</ele>
        <time>2018-07-30T10:00:00Z</time>
      </trkpt>
      <trkpt lat="41.380726" lon="1.161909">
        <ele>330.019</ele>
        <time>2018-07-30T10:00:00Z</time>
      </trkpt>
      <trkpt lat="41.380617" lon="1.161302">
        <ele>328.862</ele>
        <time>2018-07-30T10:00:00Z</time>
      </trkpt>
      <trkpt lat="41.379072587455695" lon="1.1617527002817953">
        <ele>354</ele>
        <time>2018-07-30T10:00:00Z</time>
      </trkpt>
      <trkpt lat="41.37904678099427" lon="1.1617398262023928">
        <ele>354</ele>
        <time>2018-07-30T10:00:00Z</time>
      </trkpt>
      <trkpt lat="41.37900973803399" lon="1.1614007952448449">
        <ele>355</ele>
        <time>2018-07-30T10:00:00Z</time>
      </trkpt>
      <trkpt lat="41.378891746421544" lon="1.1608085627085531">
        <ele>359</ele>
        <time>2018-07-30T10:00:00Z</time>
      </trkpt>
      <trkpt lat="41.37872918516327" lon="1.1604309082031252">
        <ele>359</ele>
        <time>2018-07-30T10:00:00Z</time>
      </trkpt>
      <trkpt lat="41.37871714961676" lon="1.159997462964384">
        <ele>356</ele>
        <time>2018-07-30T10:00:00Z</time>
      </trkpt>
      <trkpt lat="41.3784810060602" lon="1.1596241002553145">
        <ele>356</ele>
        <time>2018-07-30T10:00:00Z</time>
      </trkpt>
      <trkpt lat="41.378204085917204" lon="1.1595039365056439">
        <ele>353</ele>
        <time>2018-07-30T10:00:00Z</time>
      </trkpt>
      <trkpt lat="41.377658901621835" lon="1.1590790748596194">
        <ele>357</ele>
        <time>2018-07-30T10:00:00Z</time>
      </trkpt>
      <trkpt lat="41.37752" lon="1.158853">
        <ele>347.988</ele>
        <time>2018-07-30T10:00:00Z</time>
      </trkpt>
      <trkpt lat="41.37728" lon="1.158776">
        <ele>348.994</ele>
        <time>2018-07-30T10:00:00Z</time>
      </trkpt>
      <trkpt lat="41.374696" lon="1.15378">
        <ele>373.83</ele>
        <time>2018-07-30T10:00:00Z</time>
      </trkpt>
      <trkpt lat="41.375213" lon="1.15288">
        <ele>370.91</ele>
        <time>2018-07-30T10:00:00Z</time>
      </trkpt>
      <trkpt lat="41.374596" lon="1.152312">
        <ele>376.944</ele>
        <time>2018-07-30T10:00:00Z</time>
      </trkpt>
      <trkpt lat="41.374643" lon="1.152143">
        <ele>377.823</ele>
        <time>2018-07-30T10:00:00Z</time>
      </trkpt>
      <trkpt lat="41.375561" lon="1.151279">
        <ele>379.223</ele>
        <time>2018-07-30T10:00:00Z</time>
      </trkpt>
      <trkpt lat="41.375276" lon="1.150635">
        <ele>384.193</ele>
        <time>2018-07-30T10:00:00Z</time>
      </trkpt>
      <trkpt lat="41.375384" lon="1.150363">
        <ele>384.61</ele>
        <time>2018-07-30T10:00:00Z</time>
      </trkpt>
      <trkpt lat="41.375089" lon="1.149642">
        <ele>389.82</ele>
        <time>2018-07-30T10:00:00Z</time>
      </trkpt>
      <trkpt lat="41.374845" lon="1.149413">
        <ele>392.017</ele>
        <time>2018-07-30T10:00:00Z</time>
      </trkpt>
      <trkpt lat="41.37428" lon="1.14838">
        <ele>399.737</ele>
        <time>2018-07-30T10:00:00Z</time>
      </trkpt>
      <trkpt lat="41.373467" lon="1.148798">
        <ele>399.632</ele>
        <time>2018-07-30T10:00:00Z</time>
      </trkpt>
      <trkpt lat="41.373317" lon="1.148455">
        <ele>401.268</ele>
        <time>2018-07-30T10:00:00Z</time>
      </trkpt>
      <trkpt lat="41.373116" lon="1.146308">
        <ele>417.34</ele>
        <time>2018-07-30T10:00:00Z</time>
      </trkpt>
      <trkpt lat="41.372877" lon="1.146273">
        <ele>421.055</ele>
        <time>2018-07-30T10:00:00Z</time>
      </trkpt>
      <trkpt lat="41.372896" lon="1.145824">
        <ele>424.979</ele>
        <time>2018-07-30T10:00:00Z</time>
      </trkpt>
      <trkpt lat="41.372827" lon="1.145437">
        <ele>429.045</ele>
        <time>2018-07-30T10:00:00Z</time>
      </trkpt>
      <trkpt lat="41.372971" lon="1.145201">
        <ele>431.534</ele>
        <time>2018-07-30T10:00:00Z</time>
      </trkpt>
      <trkpt lat="41.373016" lon="1.144909">
        <ele>440.708</ele>
        <time>2018-07-30T10:00:00Z</time>
      </trkpt>
      <trkpt lat="41.373091" lon="1.144851">
        <ele>443.997</ele>
        <time>2018-07-30T10:00:00Z</time>
      </trkpt>
      <trkpt lat="41.372843" lon="1.144296">
        <ele>446.544</ele>
        <time>2018-07-30T10:00:00Z</time>
      </trkpt>
      <trkpt lat="41.372952" lon="1.144042">
        <ele>452.437</ele>
        <time>2018-07-30T10:00:00Z</time>
      </trkpt>
      <trkpt lat="41.373112" lon="1.144193">
        <ele>456.296</ele>
        <time>2018-07-30T10:00:00Z</time>
      </trkpt>
      <trkpt lat="41.373309" lon="1.143848">
        <ele>465.988</ele>
        <time>2018-07-30T10:00:00Z</time>
      </trkpt>
      <trkpt lat="41.373399" lon="1.143264">
        <ele>479.457</ele>
        <time>2018-07-30T10:00:00Z</time>
      </trkpt>
      <trkpt lat="41.373407" lon="1.142116">
        <ele>498.729</ele>
        <time>2018-07-30T10:00:00Z</time>
      </trkpt>
      <trkpt lat="41.373402" lon="1.141231">
        <ele>515.516</ele>
        <time>2018-07-30T10:00:00Z</time>
      </trkpt>
      <trkpt lat="41.37324" lon="1.140704">
        <ele>523.208</ele>
        <time>2018-07-30T10:00:00Z</time>
      </trkpt>
      <trkpt lat="41.373186" lon="1.140125">
        <ele>530.337</ele>
        <time>2018-07-30T10:00:00Z</time>
      </trkpt>
      <trkpt lat="41.372701" lon="1.138561">
        <ele>564.365</ele>
        <time>2018-07-30T10:00:00Z</time>
      </trkpt>
      <trkpt lat="41.372702" lon="1.138029">
        <ele>577.094</ele>
        <time>2018-07-30T10:00:00Z</time>
      </trkpt>
      <trkpt lat="41.372616" lon="1.137767">
        <ele>583.58</ele>
        <time>2018-07-30T10:00:00Z</time>
      </trkpt>
      <trkpt lat="41.372642" lon="1.137157">
        <ele>594.52</ele>
        <time>2018-07-30T10:00:00Z</time>
      </trkpt>
      <trkpt lat="41.372428" lon="1.13669">
        <ele>615.336</ele>
        <time>2018-07-30T10:00:00Z</time>
      </trkpt>
      <trkpt lat="41.372147" lon="1.134654">
        <ele>625.956</ele>
        <time>2018-07-30T10:00:00Z</time>
      </trkpt>
      <trkpt lat="41.3723" lon="1.134087">
        <ele>622.653</ele>
        <time>2018-07-30T10:00:00Z</time>
      </trkpt>
      <trkpt lat="41.372702" lon="1.133867">
        <ele>625.96</ele>
        <time>2018-07-30T10:00:00Z</time>
      </trkpt>
      <trkpt lat="41.373016" lon="1.133511">
        <ele>634.433</ele>
        <time>2018-07-30T10:00:00Z</time>
      </trkpt>
      <trkpt lat="41.373261" lon="1.13253">
        <ele>634.953</ele>
        <time>2018-07-30T10:00:00Z</time>
      </trkpt>
      <trkpt lat="41.3731" lon="1.131751">
        <ele>650.85</ele>
        <time>2018-07-30T10:00:00Z</time>
      </trkpt>
      <trkpt lat="41.372711" lon="1.130776">
        <ele>675.427</ele>
        <time>2018-07-30T10:00:00Z</time>
      </trkpt>
      <trkpt lat="41.372781" lon="1.129602">
        <ele>673.581</ele>
        <time>2018-07-30T10:00:00Z</time>
      </trkpt>
      <trkpt lat="41.372818" lon="1.129362">
        <ele>683.461</ele>
        <time>2018-07-30T10:00:00Z</time>
      </trkpt>
      <trkpt lat="41.373549" lon="1.129156">
        <ele>695.275</ele>
        <time>2018-07-30T10:00:00Z</time>
      </trkpt>
      <trkpt lat="41.373676" lon="1.128931">
        <ele>700.682</ele>
        <time>2018-07-30T10:00:00Z</time>
      </trkpt>
      <trkpt lat="41.373703" lon="1.12841">
        <ele>690.354</ele>
        <time>2018-07-30T10:00:00Z</time>
      </trkpt>
      <trkpt lat="41.373699" lon="1.128165">
        <ele>671.14</ele>
        <time>2018-07-30T10:00:00Z</time>
      </trkpt>
      <trkpt lat="41.373681" lon="1.127866">
        <ele>667.766</ele>
        <time>2018-07-30T10:00:00Z</time>
      </trkpt>
      <trkpt lat="41.373625" lon="1.127467">
        <ele>670.139</ele>
        <time>2018-07-30T10:00:00Z</time>
      </trkpt>
      <trkpt lat="41.373861" lon="1.127036">
        <ele>673.965</ele>
        <time>2018-07-30T10:00:00Z</time>
      </trkpt>
      <trkpt lat="41.373868" lon="1.126372">
        <ele>683.748</ele>
        <time>2018-07-30T10:00:00Z</time>
      </trkpt>
      <trkpt lat="41.373574" lon="1.126004">
        <ele>688.371</ele>
        <time>2018-07-30T10:00:00Z</time>
      </trkpt>
      <trkpt lat="41.373549" lon="1.125311">
        <ele>691.182</ele>
        <time>2018-07-30T10:00:00Z</time>
      </trkpt>
      <trkpt lat="41.373181" lon="1.12482">
        <ele>698.151</ele>
        <time>2018-07-30T10:00:00Z</time>
      </trkpt>
      <trkpt lat="41.373222" lon="1.124597">
        <ele>698.991</ele>
        <time>2018-07-30T10:00:00Z</time>
      </trkpt>
      <trkpt lat="41.372725" lon="1.123685">
        <ele>707.608</ele>
        <time>2018-07-30T10:00:00Z</time>
      </trkpt>
      <trkpt lat="41.372398" lon="1.123473">
        <ele>710.057</ele>
        <time>2018-07-30T10:00:00Z</time>
      </trkpt>
      <trkpt lat="41.3725" lon="1.123069">
        <ele>698.263</ele>
        <time>2018-07-30T10:00:00Z</time>
      </trkpt>
      <trkpt lat="41.372411" lon="1.12291">
        <ele>692.67</ele>
        <time>2018-07-30T10:00:00Z</time>
      </trkpt>
      <trkpt lat="41.372437" lon="1.122318">
        <ele>690.716</ele>
        <time>2018-07-30T10:00:00Z</time>
      </trkpt>
      <trkpt lat="41.372567" lon="1.12143">
        <ele>682.666</ele>
        <time>2018-07-30T10:00:00Z</time>
      </trkpt>
      <trkpt lat="41.372513" lon="1.121144">
        <ele>682.389</ele>
        <time>2018-07-30T10:00:00Z</time>
      </trkpt>
      <trkpt lat="41.372397" lon="1.121231">
        <ele>680.931</ele>
        <time>2018-07-30T10:00:00Z</time>
      </trkpt>
      <trkpt lat="41.37238" lon="1.122093">
        <ele>681.44</ele>
        <time>2018-07-30T10:00:00Z</time>
      </trkpt>
      <trkpt lat="41.372163" lon="1.122643">
        <ele>678.285</ele>
        <time>2018-07-30T10:00:00Z</time>
      </trkpt>
      <trkpt lat="41.372018" lon="1.122551">
        <ele>676.462</ele>
        <time>2018-07-30T10:00:00Z</time>
      </trkpt>
      <trkpt lat="41.371863" lon="1.122155">
        <ele>674.326</ele>
        <time>2018-07-30T10:00:00Z</time>
      </trkpt>
      <trkpt lat="41.371455" lon="1.121737">
        <ele>671.55</ele>
        <time>2018-07-30T10:00:00Z</time>
      </trkpt>
      <trkpt lat="41.371285" lon="1.121825">
        <ele>670.887</ele>
        <time>2018-07-30T10:00:00Z</time>
      </trkpt>
      <trkpt lat="41.371034" lon="1.121892">
        <ele>668.047</ele>
        <time>2018-07-30T10:00:00Z</time>
      </trkpt>
      <trkpt lat="41.370877" lon="1.121108">
        <ele>666.056</ele>
        <time>2018-07-30T10:00:00Z</time>
      </trkpt>
      <trkpt lat="41.370581" lon="1.120913">
        <ele>660.36</ele>
        <time>2018-07-30T10:00:00Z</time>
      </trkpt>
      <trkpt lat="41.37054" lon="1.120615">
        <ele>659.488</ele>
        <time>2018-07-30T10:00:00Z</time>
      </trkpt>
      <trkpt lat="41.370194" lon="1.120392">
        <ele>655.056</ele>
        <time>2018-07-30T10:00:00Z</time>
      </trkpt>
      <trkpt lat="41.37004" lon="1.119488">
        <ele>649.93</ele>
        <time>2018-07-30T10:00:00Z</time>
      </trkpt>
      <trkpt lat="41.370039" lon="1.119123">
        <ele>647.008</ele>
        <time>2018-07-30T10:00:00Z</time>
      </trkpt>
      <trkpt lat="41.370649" lon="1.118735">
        <ele>642.032</ele>
        <time>2018-07-30T10:00:00Z</time>
      </trkpt>
      <trkpt lat="41.370733" lon="1.118362">
        <ele>640.737</ele>
        <time>2018-07-30T10:00:00Z</time>
      </trkpt>
      <trkpt lat="41.370572" lon="1.117876">
        <ele>639.008</ele>
        <time>2018-07-30T10:00:00Z</time>
      </trkpt>
      <trkpt lat="41.370393" lon="1.117636">
        <ele>636.067</ele>
        <time>2018-07-30T10:00:00Z</time>
      </trkpt>
      <trkpt lat="41.370452" lon="1.117347">
        <ele>635.599</ele>
        <time>2018-07-30T10:00:00Z</time>
      </trkpt>
      <trkpt lat="41.370369" lon="1.117015">
        <ele>633.908</ele>
        <time>2018-07-30T10:00:00Z</time>
      </trkpt>
      <trkpt lat="41.37118" lon="1.117034">
        <ele>625.344</ele>
        <time>2018-07-30T10:00:00Z</time>
      </trkpt>
      <trkpt lat="41.371687" lon="1.117485">
        <ele>618.467</ele>
        <time>2018-07-30T10:00:00Z</time>
      </trkpt>
      <trkpt lat="41.371889" lon="1.117683">
        <ele>616.108</ele>
        <time>2018-07-30T10:00:00Z</time>
      </trkpt>
      <trkpt lat="41.372137" lon="1.117442">
        <ele>614.945</ele>
        <time>2018-07-30T10:00:00Z</time>
      </trkpt>
      <trkpt lat="41.372454" lon="1.117015">
        <ele>612.993</ele>
        <time>2018-07-30T10:00:00Z</time>
      </trkpt>
      <trkpt lat="41.372696" lon="1.116936">
        <ele>609.723</ele>
        <time>2018-07-30T10:00:00Z</time>
      </trkpt>
      <trkpt lat="41.37307" lon="1.116405">
        <ele>608.269</ele>
        <time>2018-07-30T10:00:00Z</time>
      </trkpt>
      <trkpt lat="41.372959" lon="1.116229">
        <ele>608.869</ele>
        <time>2018-07-30T10:00:00Z</time>
      </trkpt>
      <trkpt lat="41.372478" lon="1.116004">
        <ele>605.479</ele>
        <time>2018-07-30T10:00:00Z</time>
      </trkpt>
      <trkpt lat="41.372406" lon="1.115462">
        <ele>601.717</ele>
        <time>2018-07-30T10:00:00Z</time>
      </trkpt>
      <trkpt lat="41.372856" lon="1.114833">
        <ele>595.108</ele>
        <time>2018-07-30T10:00:00Z</time>
      </trkpt>
      <trkpt lat="41.372902" lon="1.114389">
        <ele>593.924</ele>
        <time>2018-07-30T10:00:00Z</time>
      </trkpt>
      <trkpt lat="41.372411" lon="1.113519">
        <ele>588.378</ele>
        <time>2018-07-30T10:00:00Z</time>
      </trkpt>
      <trkpt lat="41.372095" lon="1.113229">
        <ele>581.741</ele>
        <time>2018-07-30T10:00:00Z</time>
      </trkpt>
      <trkpt lat="41.372442" lon="1.1124">
        <ele>579.843</ele>
        <time>2018-07-30T10:00:00Z</time>
      </trkpt>
      <trkpt lat="41.372302" lon="1.111854">
        <ele>576.943</ele>
        <time>2018-07-30T10:00:00Z</time>
      </trkpt>
      <trkpt lat="41.372549" lon="1.111518">
        <ele>575.091</ele>
        <time>2018-07-30T10:00:00Z</time>
      </trkpt>
      <trkpt lat="41.372468" lon="1.111257">
        <ele>573.919</ele>
        <time>2018-07-30T10:00:00Z</time>
      </trkpt>
      <trkpt lat="41.371627" lon="1.110205">
        <ele>569.396</ele>
        <time>2018-07-30T10:00:00Z</time>
      </trkpt>
      <trkpt lat="41.37109" lon="1.108786">
        <ele>582.104</ele>
        <time>2018-07-30T10:00:00Z</time>
      </trkpt>
      <trkpt lat="41.370661" lon="1.108701">
        <ele>590.461</ele>
        <time>2018-07-30T10:00:00Z</time>
      </trkpt>
      <trkpt lat="41.370508" lon="1.107643">
        <ele>595.808</ele>
        <time>2018-07-30T10:00:00Z</time>
      </trkpt>
      <trkpt lat="41.370625" lon="1.106803">
        <ele>603.326</ele>
        <time>2018-07-30T10:00:00Z</time>
      </trkpt>
      <trkpt lat="41.370208" lon="1.105829">
        <ele>616.982</ele>
        <time>2018-07-30T10:00:00Z</time>
      </trkpt>
      <trkpt lat="41.369687" lon="1.105186">
        <ele>627.276</ele>
        <time>2018-07-30T10:00:00Z</time>
      </trkpt>
      <trkpt lat="41.369549" lon="1.104993">
        <ele>629.908</ele>
        <time>2018-07-30T10:00:00Z</time>
      </trkpt>
      <trkpt lat="41.369471" lon="1.104541">
        <ele>638.351</ele>
        <time>2018-07-30T10:00:00Z</time>
      </trkpt>
      <trkpt lat="41.369358" lon="1.104002">
        <ele>637.744</ele>
        <time>2018-07-30T10:00:00Z</time>
      </trkpt>
      <trkpt lat="41.369168" lon="1.103654">
        <ele>638.311</ele>
        <time>2018-07-30T10:00:00Z</time>
      </trkpt>
      <trkpt lat="41.369292" lon="1.103543">
        <ele>638.319</ele>
        <time>2018-07-30T10:00:00Z</time>
      </trkpt>
      <trkpt lat="41.369702" lon="1.103531">
        <ele>644.513</ele>
        <time>2018-07-30T10:00:00Z</time>
      </trkpt>
      <trkpt lat="41.370007" lon="1.103738">
        <ele>649.698</ele>
        <time>2018-07-30T10:00:00Z</time>
      </trkpt>
      <trkpt lat="41.371275" lon="1.103611">
        <ele>684.149</ele>
        <time>2018-07-30T10:00:00Z</time>
      </trkpt>
      <trkpt lat="41.371682" lon="1.103444">
        <ele>667.346</ele>
        <time>2018-07-30T10:00:00Z</time>
      </trkpt>
      <trkpt lat="41.372127" lon="1.103377">
        <ele>658.014</ele>
        <time>2018-07-30T10:00:00Z</time>
      </trkpt>
      <trkpt lat="41.372665" lon="1.103206">
        <ele>645.006</ele>
        <time>2018-07-30T10:00:00Z</time>
      </trkpt>
      <trkpt lat="41.372894" lon="1.103188">
        <ele>640.699</ele>
        <time>2018-07-30T10:00:00Z</time>
      </trkpt>
      <trkpt lat="41.372958" lon="1.102958">
        <ele>636.334</ele>
        <time>2018-07-30T10:00:00Z</time>
      </trkpt>
      <trkpt lat="41.373157" lon="1.102708">
        <ele>630.952</ele>
        <time>2018-07-30T10:00:00Z</time>
      </trkpt>
      <trkpt lat="41.373432" lon="1.102466">
        <ele>622.06</ele>
        <time>2018-07-30T10:00:00Z</time>
      </trkpt>
      <trkpt lat="41.373565" lon="1.102092">
        <ele>611.611</ele>
        <time>2018-07-30T10:00:00Z</time>
      </trkpt>
      <trkpt lat="41.37412" lon="1.101586">
        <ele>593.532</ele>
        <time>2018-07-30T10:00:00Z</time>
      </trkpt>
      <trkpt lat="41.374278" lon="1.101019">
        <ele>580.062</ele>
        <time>2018-07-30T10:00:00Z</time>
      </trkpt>
      <trkpt lat="41.374749" lon="1.100722">
        <ele>571.916</ele>
        <time>2018-07-30T10:00:00Z</time>
      </trkpt>
      <trkpt lat="41.37542" lon="1.100352">
        <ele>555.515</ele>
        <time>2018-07-30T10:00:00Z</time>
      </trkpt>
      <trkpt lat="41.376115" lon="1.100384">
        <ele>547.774</ele>
        <time>2018-07-30T10:00:00Z</time>
      </trkpt>
      <trkpt lat="41.377314" lon="1.099649">
        <ele>544.816</ele>
        <time>2018-07-30T10:00:00Z</time>
      </trkpt>
      <trkpt lat="41.378435" lon="1.09933">
        <ele>536.434</ele>
        <time>2018-07-30T10:00:00Z</time>
      </trkpt>
      <trkpt lat="41.378698" lon="1.099172">
        <ele>531.333</ele>
        <time>2018-07-30T10:00:00Z</time>
      </trkpt>
      <trkpt lat="41.379266" lon="1.099185">
        <ele>520.383</ele>
        <time>2018-07-30T10:00:00Z</time>
      </trkpt>
      <trkpt lat="41.37954" lon="1.099159">
        <ele>516.544</ele>
        <time>2018-07-30T10:00:00Z</time>
      </trkpt>
      <trkpt lat="41.379661" lon="1.098528">
        <ele>521.178</ele>
        <time>2018-07-30T10:00:00Z</time>
      </trkpt>
      <trkpt lat="41.379642" lon="1.09738">
        <ele>525.414</ele>
        <time>2018-07-30T10:00:00Z</time>
      </trkpt>
      <trkpt lat="41.379446" lon="1.096453">
        <ele>529.047</ele>
        <time>2018-07-30T10:00:00Z</time>
      </trkpt>
      <trkpt lat="41.379434" lon="1.095993">
        <ele>534.277</ele>
        <time>2018-07-30T10:00:00Z</time>
      </trkpt>
      <trkpt lat="41.379168" lon="1.095409">
        <ele>538.816</ele>
        <time>2018-07-30T10:00:00Z</time>
      </trkpt>
      <trkpt lat="41.379279" lon="1.094246">
        <ele>540.463</ele>
        <time>2018-07-30T10:00:00Z</time>
      </trkpt>
      <trkpt lat="41.379475" lon="1.09332">
        <ele>538.987</ele>
        <time>2018-07-30T10:00:00Z</time>
      </trkpt>
      <trkpt lat="41.379217" lon="1.093238">
        <ele>534.273</ele>
        <time>2018-07-30T10:00:00Z</time>
      </trkpt>
      <trkpt lat="41.379094" lon="1.093152">
        <ele>533.23</ele>
        <time>2018-07-30T10:00:00Z</time>
      </trkpt>
      <trkpt lat="41.378292" lon="1.091373">
        <ele>528.387</ele>
        <time>2018-07-30T10:00:00Z</time>
      </trkpt>
      <trkpt lat="41.377873" lon="1.091226">
        <ele>531.326</ele>
        <time>2018-07-30T10:00:00Z</time>
      </trkpt>
      <trkpt lat="41.377483" lon="1.090437">
        <ele>530.589</ele>
        <time>2018-07-30T10:00:00Z</time>
      </trkpt>
      <trkpt lat="41.376682" lon="1.08893">
        <ele>527.957</ele>
        <time>2018-07-30T10:00:00Z</time>
      </trkpt>
      <trkpt lat="41.376283" lon="1.088762">
        <ele>525.927</ele>
        <time>2018-07-30T10:00:00Z</time>
      </trkpt>
      <trkpt lat="41.37634" lon="1.088408">
        <ele>525.817</ele>
        <time>2018-07-30T10:00:00Z</time>
      </trkpt>
      <trkpt lat="41.376996" lon="1.088029">
        <ele>522.759</ele>
        <time>2018-07-30T10:00:00Z</time>
      </trkpt>
      <trkpt lat="41.377865" lon="1.086939">
        <ele>515.844</ele>
        <time>2018-07-30T10:00:00Z</time>
      </trkpt>
      <trkpt lat="41.378169" lon="1.08488">
        <ele>513.825</ele>
        <time>2018-07-30T10:00:00Z</time>
      </trkpt>
      <trkpt lat="41.379077" lon="1.082904">
        <ele>506.277</ele>
        <time>2018-07-30T10:00:00Z</time>
      </trkpt>
      <trkpt lat="41.379838" lon="1.080658">
        <ele>499.32</ele>
        <time>2018-07-30T12:55:01Z</time>
      </trkpt>
      <trkpt lat="41.380322" lon="1.079998">
        <ele>494.914</ele>
      </trkpt>
      <trkpt lat="41.380446" lon="1.080132">
        <ele>493.92</ele>
      </trkpt>
      <trkpt lat="41.380519" lon="1.081254">
        <ele>493.965</ele>
      </trkpt>
    </trkseg>
  </trk>
</gpx>
